Weather in Kiprevo

Russia / Vladimir Oblast     56°14′14″N   38°59′31″E
temp.,
°C
wind,
m/s
gust,
m/s
humid.,
%
clouds,
%
prec.,
mm/h
press.,
hPa
HPBL,
m
3 august, tue
tue300:00+19s41593100 1.7 1003407
03:00+19sw31096100 3.1 1003605
06:00+17w399466 0.0 1005590
09:00+20wsw3572100 0.0 1007895
12:00+24sw3549100 0.0 10081729
15:00+23wsw365174 0.0 10081165
18:00+21wnw4858100 0.0 1009625
21:00+17sw237282 0.0 101067
4 august, wed
wed400:00+14wsw27751 0.0 1012128
03:00+13w23801 0.0 101258
06:00+14w147953 0.0 1014114
09:00+20wnw24544 0.0 1014745
12:00+23wnw354085 0.0 10142605
15:00+20wnw255749 0.0 1015288
18:00+19nw2261100 0.0 101579
21:00+17wsw246994 0.0 1016121
5 august, thu
thu500:00+15nw236786 0.0 101756
03:00+15n116491 0.0 101823
06:00+15n1164100 0.0 101816
09:00+19ene1250100 0.0 1018438
12:00+20e1246100 0.0 1018808
15:00+21e233899 0.0 1018727
18:00+21se1250100 0.0 1017355
21:00+16sw2269100 0.1 101731
6 august, fri
fri600:00+14e1195100 2.7 101639
03:00+14ese2599100 7.8 1016217
06:00+14e4898100 5.4 1014321
09:00+14ese41197100 8.9 1014546
12:00+14ese4898100 9.6 1012408
15:00+14e2598100 15.2 1013153
18:00+15e379798 1.9 1012235
21:00+15e2498100 2.7 1012150
7 august, sat
sat700:00+15ene1398100 1.2 1012102
03:00+15ene3997100 1.8 1012204
06:00+15e4119571 0.0 1011343
09:00+17ese3684100 0.1 1011272
12:00+21sse2567100 0.0 1011435
15:00+24s126570 0.0 1010282
18:00+24nne2473100 0.0 1009145
21:00+19nne2396100 1.3 101158